Location: Wanzleben
(52.0609°N, 11.4408°E)
Time: 11:00:02
(UTC+00:00)

Cosmos 2263 Rocket - Pass Details

Date: 23 January 2021
Orbit: 825 x 847 km, 71.0° (Epoch: 24 February)

Event Time Altitude Azimuth Distance (km) Brightness Sun altitude
Rises 16:24:48 0° 211° (SSW) 3,397 6.4 -6.1°
Reaches altitude 10° 16:27:15 10° 213° (SSW) 2,464 5.6 -6.5°
Maximum altitude 16:32:55 82° 301° (WNW) 858 2.3 -7.3°
Drops below altitude 10° 16:38:37 10° 30° (NNE) 2,468 4.2 -8.1°
Enters shadow 16:40:21 - 31° (NNE) 3,129 4.7 -8.3°
